Regional Weather Roundup
Issued by NWS

Home | Current Version | Previous Version | Graphics & Text | Print | Product List | Glossary On
Versions: 1 2 3 4 5 6 7 8 9 10 11 12 13 14 15 16 17 18 19 20 21 22 23 24 25 26 27 28 29 30 31 32 33 34 35 36 37 38 39 40 41 42 43 44 45 46 47 48 49 50
000
ASUS45 KCYS 170710
RWRWY

WYOMING REGIONAL WEATHER ROUNDUP
NATIONAL WEATHER SERVICE CHEYENNE WY
1200 AM MST SUN DEC 17 2017

NOTE:  "FAIR" INDICATES FEW OR NO CLOUDS BELOW 12,000 FEET
WITH NO SIGNIFICANT WEATHER AND/OR OBSTRUCTIONS TO VISIBILITY.

WYZ001-170800-
YELLOWSTONE NATIONAL PARK

CITY           SKY/WX    TMP DP  RH WIND       PRES   REMARKS
LK YELLOWSTONE   N/A      0  -4  83 CALM      29.98S
W YELLOWSTONE  NOT AVBL

$$
WYZ002>013-054>058-071-098>099-170800-
NORTHERN WYOMING

CITY           SKY/WX    TMP DP  RH WIND       PRES   REMARKS
JACKSON        FAIR      11   9  92 NW9       29.98F WCI  -2
CODY           CLOUDY    19  17  92 S3        30.01F
GREYBULL       LGT SNOW  27  25  92 W7        30.02S FOG     WCI  19
WORLAND        LGT SNOW  25  25 100 SW7       30.02F FOG     WCI  17
SHERIDAN       FOG       21  21 100 CALM      30.02F VSB 1/4
BUFFALO        CLOUDY    25  20  81 CALM      30.00F
GILLETTE       FLURRIES  26  25  96 N3        30.01S
HULETT         LGT SNOW  28  27  93 CALM      30.02F
NEWCASTLE      LGT SNOW  28  28 100 CALM      30.03S

$$
WYZ014>020-022>026-101>103-170800-
CENTRAL WYOMING

CITY           SKY/WX    TMP DP  RH WIND       PRES   REMARKS
BIG PINEY      CLOUDY    19  15  84 NE3       29.92R
PINEDALE       CLOUDY    21  18  86 NW8       29.92S WCI  12
DUBOIS         LGT SNOW  21  21 100 S3        29.92S
LANDER         LGT SNOW  24  23  96 E5        29.97F FOG     WCI  18
RIVERTON       LGT SNOW  24  24 100 CALM      29.98S FOG
CASPER         LGT SNOW  24  22  91 MISG      29.97S FOG
DOUGLAS        CLOUDY    28  24  85 E14       29.98S WCI  17

$$
WYZ021-027>030-104>119-170800-
SOUTHERN WYOMING

CITY           SKY/WX    TMP DP  RH WIND       PRES   REMARKS
EVANSTON       LGT SNOW  21  20  96 N6        29.98R FOG     WCI  13
FORT BRIDGER   CLOUDY    23  21  91 W16       29.98R WCI  10
ROCK SPRINGS   FLURRIES  25  22  88 SW10      29.93R WCI  15
DIXON          FAIR      16  11  81 CALM      29.92R
RAWLINS        CLOUDY    25  22  88 NW6       29.89R WCI  18
SARATOGA       FAIR      18  18 100 W7        29.89R WCI   8
LARAMIE        MOCLDY    23  22  96 SE17      29.86F WCI   9
CHEYENNE       SNOW      26  26 100 SE5       29.92S VSB 1/2 WCI  20
TORRINGTON     CLOUDY    30  25  81 NE9       30.00R WCI  22
PINE BLUFFS    CLOUDY    28  28 100 NE7       29.95S WCI  21

$$



USA.gov is the U.S. government's official web portal to all federal, state and local government web resources and services.